Time,TemperatureF,DewpointF,PressureIn,WindDirection,WindDirectionDegrees,WindSpeedMPH,WindSpeedGustMPH,Humidity,HourlyPrecipIn,Conditions,Clouds,dailyrainin,SolarRadiationWatts/m^2,SoftwareType,DateUTC
2013-03-06 00:04:00,33.9,27.4,30.04,NE,47,1.0,1.0,77,0.00,,,0.00,0,Wunderground v.1.15,2013-03-06 05:04:00,
2013-03-06 00:09:00,33.9,27.4,30.04,NE,49,1.0,2.0,77,0.00,,,0.00,0,Wunderground v.1.15,2013-03-06 05:09:00,
2013-03-06 00:14:00,33.8,27.4,30.04,NE,49,1.0,1.0,77,0.00,,,0.00,0,Wunderground v.1.15,2013-03-06 05:14:00,
2013-03-06 00:19:00,33.8,27.7,30.04,NNE,26,1.0,1.0,78,0.00,,,0.00,0,Wunderground v.1.15,2013-03-06 05:19:00,
2013-03-06 00:24:00,33.7,27.6,30.04,NE,51,1.0,3.0,78,0.00,,,0.00,0,Wunderground v.1.15,2013-03-06 05:24:00,
2013-03-06 00:34:00,33.6,27.5,30.04,NE,44,1.0,2.0,78,0.00,,,0.00,0,Wunderground v.1.15,2013-03-06 05:34:00,
2013-03-06 00:44:00,33.5,27.4,30.04,ENE,58,1.0,2.0,78,0.00,,,0.00,0,Wunderground v.1.15,2013-03-06 05:44:00,
2013-03-06 00:54:00,33.4,27.6,30.04,NNE,28,2.0,4.0,79,0.00,,,0.00,0,Wunderground v.1.15,2013-03-06 05:54:00,
2013-03-06 01:04:00,33.4,27.6,30.04,NE,52,3.0,3.0,79,0.00,,,0.00,0,Wunderground v.1.15,2013-03-06 06:04:00,
2013-03-06 01:09:00,33.4,27.6,30.04,ENE,69,2.0,3.0,79,0.00,,,0.00,0,Wunderground v.1.15,2013-03-06 06:09:00,
2013-03-06 01:14:00,33.3,27.8,30.04,East,80,2.0,3.0,80,0.00,,,0.00,0,Wunderground v.1.15,2013-03-06 06:14:00,
2013-03-06 01:19:00,33.2,27.4,30.04,ENE,73,2.0,3.0,79,0.00,,,0.00,0,Wunderground v.1.15,2013-03-06 06:19:00,
2013-03-06 01:24:00,33.2,27.4,30.04,NE,51,2.0,2.0,79,0.00,,,0.00,0,Wunderground v.1.15,2013-03-06 06:24:00,
2013-03-06 01:29:00,33.2,27.7,30.04,ENE,58,1.0,3.0,80,0.00,,,0.00,0,Wunderground v.1.15,2013-03-06 06:29:00,
2013-03-06 01:34:00,33.1,27.6,30.04,ENE,75,1.0,2.0,80,0.00,,,0.00,0,Wunderground v.1.15,2013-03-06 06:34:00,
2013-03-06 01:39:00,33.0,27.5,30.04,NNE,27,2.0,4.0,80,0.00,,,0.00,0,Wunderground v.1.15,2013-03-06 06:39:00,
2013-03-06 01:44:00,33.0,27.8,30.04,ENE,59,1.0,1.0,81,0.00,,,0.00,0,Wunderground v.1.15,2013-03-06 06:44:00,
2013-03-06 01:49:00,32.9,27.7,30.03,ENE,73,1.0,1.0,81,0.00,,,0.00,0,Wunderground v.1.15,2013-03-06 06:49:00,
2013-03-06 01:54:00,32.8,27.6,30.03,East,98,1.0,5.0,81,0.00,,,0.00,0,Wunderground v.1.15,2013-03-06 06:54:00,
2013-03-06 01:59:00,32.8,27.6,30.03,ENE,65,1.0,5.0,81,0.00,,,0.00,0,Wunderground v.1.15,2013-03-06 06:59:00,
2013-03-06 02:04:00,32.7,27.8,30.03,NE,55,2.0,2.0,82,0.00,,,0.00,0,Wunderground v.1.15,2013-03-06 07:04:00,
2013-03-06 02:09:00,32.7,27.8,30.03,NE,38,2.0,4.0,82,0.00,,,0.00,0,Wunderground v.1.15,2013-03-06 07:09:00,
2013-03-06 02:14:00,32.7,27.8,30.03,ENE,65,2.0,2.0,82,0.00,,,0.00,0,Wunderground v.1.15,2013-03-06 07:14:00,
2013-03-06 02:24:00,32.7,28.1,30.03,East,80,2.0,2.0,83,0.00,,,0.00,0,Wunderground v.1.15,2013-03-06 07:24:00,
2013-03-06 02:29:00,32.7,28.1,30.02,ENE,71,2.0,2.0,83,0.00,,,0.00,0,Wunderground v.1.15,2013-03-06 07:29:00,
2013-03-06 02:39:00,32.7,28.1,30.02,ENE,61,1.0,1.0,83,0.00,,,0.00,0,Wunderground v.1.15,2013-03-06 07:39:00,
2013-03-06 02:44:00,32.6,28.3,30.02,NE,34,1.0,2.0,84,0.00,,,0.00,0,Wunderground v.1.15,2013-03-06 07:44:00,
2013-03-06 02:49:00,32.7,28.4,30.02,NE,48,1.0,4.0,84,0.00,,,0.00,0,Wunderground v.1.15,2013-03-06 07:49:00,
2013-03-06 02:54:00,32.6,28.3,30.02,NE,37,2.0,5.0,84,0.00,,,0.00,0,Wunderground v.1.15,2013-03-06 07:54:00,
2013-03-06 02:59:00,32.6,28.3,30.01,NNE,30,3.0,5.0,84,0.00,,,0.00,0,Wunderground v.1.15,2013-03-06 07:59:00,
2013-03-06 03:04:00,32.6,28.3,30.02,NNE,26,3.0,3.0,84,0.00,,,0.00,0,Wunderground v.1.15,2013-03-06 08:04:00,
2013-03-06 03:09:00,32.6,28.6,30.02,ENE,68,2.0,4.0,85,0.00,,,0.00,0,Wunderground v.1.15,2013-03-06 08:09:00,
2013-03-06 03:14:00,32.6,28.3,30.01,ENE,63,2.0,2.0,84,0.00,,,0.00,0,Wunderground v.1.15,2013-03-06 08:14:00,
2013-03-06 03:19:00,32.5,28.2,30.01,East,79,3.0,3.0,84,0.00,,,0.00,0,Wunderground v.1.15,2013-03-06 08:19:00,
2013-03-06 03:24:00,32.5,28.2,30.01,ENE,69,4.0,4.0,84,0.00,,,0.00,0,Wunderground v.1.15,2013-03-06 08:24:00,
2013-03-06 03:29:00,32.5,28.2,30.01,SSE,168,4.0,4.0,84,0.00,,,0.00,0,Wunderground v.1.15,2013-03-06 08:29:00,
2013-03-06 03:39:00,32.4,28.4,30.01,NE,42,3.0,5.0,85,0.00,,,0.00,0,Wunderground v.1.15,2013-03-06 08:39:00,
2013-03-06 03:44:00,32.4,28.4,30.01,ENE,74,3.0,4.0,85,0.00,,,0.00,0,Wunderground v.1.15,2013-03-06 08:44:00,
2013-03-06 03:49:00,32.4,28.7,30.01,NNE,29,4.0,4.0,86,0.00,,,0.00,0,Wunderground v.1.15,2013-03-06 08:49:00,
2013-03-06 03:54:00,32.5,28.8,30.01,East,86,4.0,4.0,86,0.00,,,0.00,0,Wunderground v.1.15,2013-03-06 08:54:00,
2013-03-06 04:04:00,32.5,29.1,30.01,NNE,28,4.0,6.0,87,0.00,,,0.00,0,Wunderground v.1.15,2013-03-06 09:04:00,
2013-03-06 04:09:00,32.5,29.3,30.01,NE,47,4.0,6.0,88,0.00,,,0.00,0,Wunderground v.1.15,2013-03-06 09:09:00,
2013-03-06 04:14:00,32.5,29.3,30.00,NE,43,4.0,4.0,88,0.00,,,0.00,0,Wunderground v.1.15,2013-03-06 09:14:00,
2013-03-06 04:19:00,32.5,29.3,30.01,ENE,59,3.0,4.0,88,0.00,,,0.00,0,Wunderground v.1.15,2013-03-06 09:19:00,
2013-03-06 04:24:00,32.5,29.6,30.01,ENE,70,4.0,4.0,89,0.00,,,0.00,0,Wunderground v.1.15,2013-03-06 09:24:00,
2013-03-06 04:34:00,32.5,29.9,30.01,ENE,63,5.0,5.0,90,0.00,,,0.00,0,Wunderground v.1.15,2013-03-06 09:34:00,
2013-03-06 04:39:00,32.5,29.9,30.00,North,9,6.0,6.0,90,0.00,,,0.00,0,Wunderground v.1.15,2013-03-06 09:39:00,
2013-03-06 04:49:00,32.5,30.2,30.01,North,10,5.0,8.0,91,0.00,,,0.00,0,Wunderground v.1.15,2013-03-06 09:49:00,
2013-03-06 04:54:00,32.5,30.2,30.01,ENE,60,5.0,5.0,91,0.00,,,0.00,0,Wunderground v.1.15,2013-03-06 09:54:00,
2013-03-06 05:04:00,32.5,30.4,30.01,ENE,61,6.0,6.0,92,0.00,,,0.00,0,Wunderground v.1.15,2013-03-06 10:04:00,
2013-03-06 05:09:00,32.4,30.6,30.01,ENE,76,6.0,7.0,93,0.00,,,0.00,0,Wunderground v.1.15,2013-03-06 10:09:00,
2013-03-06 05:14:00,32.3,30.5,30.01,ENE,75,5.0,5.0,93,0.00,,,0.00,0,Wunderground v.1.15,2013-03-06 10:14:00,
2013-03-06 05:19:00,32.3,30.8,30.01,ENE,60,5.0,5.0,94,0.00,,,0.00,0,Wunderground v.1.15,2013-03-06 10:19:00,
2013-03-06 05:29:00,32.2,30.7,30.00,East,79,5.0,8.0,94,0.00,,,0.00,0,Wunderground v.1.15,2013-03-06 10:29:00,
2013-03-06 05:34:00,32.2,30.7,30.00,ENE,61,6.0,6.0,94,0.00,,,0.00,0,Wunderground v.1.15,2013-03-06 10:34:00,
2013-03-06 05:44:00,32.2,30.7,30.00,East,88,6.0,7.0,94,0.00,,,0.00,0,Wunderground v.1.15,2013-03-06 10:44:00,
2013-03-06 05:49:00,32.2,30.7,30.00,ESE,114,6.0,7.0,94,0.00,,,0.00,0,Wunderground v.1.15,2013-03-06 10:49:00,
2013-03-06 05:54:00,32.2,30.7,30.00,East,87,5.0,6.0,94,0.00,,,0.00,0,Wunderground v.1.15,2013-03-06 10:54:00,
2013-03-06 05:59:00,32.2,30.7,30.00,East,96,5.0,7.0,94,0.00,,,0.00,0,Wunderground v.1.15,2013-03-06 10:59:00,
2013-03-06 06:09:00,32.2,30.7,30.00,ENE,78,6.0,6.0,94,0.00,,,0.00,0,Wunderground v.1.15,2013-03-06 11:09:00,
2013-03-06 06:14:00,32.2,30.7,30.01,ENE,78,6.0,11.0,94,0.00,,,0.00,0,Wunderground v.1.15,2013-03-06 11:14:00,
2013-03-06 06:24:00,32.3,30.8,30.00,ENE,66,6.0,6.0,94,0.00,,,0.00,0,Wunderground v.1.15,2013-03-06 11:24:00,
2013-03-06 06:34:00,32.4,30.9,30.00,East,90,6.0,6.0,94,0.00,,,0.00,0,Wunderground v.1.15,2013-03-06 11:34:00,
2013-03-06 06:39:00,32.4,30.9,30.00,ENE,78,6.0,12.0,94,0.00,,,0.00,5,Wunderground v.1.15,2013-03-06 11:39:00,
2013-03-06 06:49:00,32.4,30.6,30.00,ENE,72,6.0,12.0,93,0.00,,,0.00,9,Wunderground v.1.15,2013-03-06 11:49:00,
2013-03-06 06:59:00,32.5,30.7,29.99,East,82,6.0,8.0,93,0.00,,,0.00,11,Wunderground v.1.15,2013-03-06 11:59:00,
2013-03-06 07:09:00,32.6,31.1,29.99,NNE,32,5.0,7.0,94,0.00,,,0.00,18,Wunderground v.1.15,2013-03-06 12:09:00,
2013-03-06 07:14:00,32.6,31.1,29.99,NE,35,5.0,5.0,94,0.00,,,0.00,21,Wunderground v.1.15,2013-03-06 12:14:00,
2013-03-06 07:24:00,32.6,31.1,29.99,SE,146,7.0,7.0,94,0.00,,,0.00,23,Wunderground v.1.15,2013-03-06 12:24:00,
2013-03-06 07:34:00,32.7,31.2,29.99,NE,48,6.0,10.0,94,0.00,,,0.00,30,Wunderground v.1.15,2013-03-06 12:34:00,
2013-03-06 07:39:00,32.7,31.2,29.99,NE,44,6.0,12.0,94,0.00,,,0.00,37,Wunderground v.1.15,2013-03-06 12:39:00,
2013-03-06 07:44:00,32.8,31.3,29.99,East,80,7.0,8.0,94,0.00,,,0.00,35,Wunderground v.1.15,2013-03-06 12:44:00,
2013-03-06 07:49:00,32.8,31.3,29.99,NE,36,7.0,8.0,94,0.00,,,0.00,33,Wunderground v.1.15,2013-03-06 12:49:00,
2013-03-06 07:54:00,32.9,31.4,29.99,NE,49,7.0,7.0,94,0.00,,,0.00,37,Wunderground v.1.15,2013-03-06 12:54:00,
2013-03-06 07:59:00,33.0,31.5,29.99,ESE,107,7.0,11.0,94,0.00,,,0.00,42,Wunderground v.1.15,2013-03-06 12:59:00,
2013-03-06 08:04:00,33.0,31.2,30.00,NE,36,7.0,7.0,93,0.00,,,0.00,40,Wunderground v.1.15,2013-03-06 13:04:00,
2013-03-06 08:14:00,33.2,31.4,30.00,ENE,63,7.0,7.0,93,0.00,,,0.00,40,Wunderground v.1.15,2013-03-06 13:14:00,
2013-03-06 08:19:00,33.2,31.4,30.00,ENE,63,8.0,8.0,93,0.00,,,0.00,42,Wunderground v.1.15,2013-03-06 13:19:00,
2013-03-06 08:24:00,33.3,31.5,30.00,ESE,111,8.0,8.0,93,0.00,,,0.00,46,Wunderground v.1.15,2013-03-06 13:24:00,
2013-03-06 08:29:00,33.4,31.6,30.00,NNE,30,6.0,8.0,93,0.00,,,0.00,56,Wunderground v.1.15,2013-03-06 13:29:00,
2013-03-06 08:34:00,33.5,31.4,30.00,ENE,71,7.0,11.0,92,0.00,,,0.00,51,Wunderground v.1.15,2013-03-06 13:34:00,
2013-03-06 08:44:00,33.6,31.5,30.00,East,81,7.0,7.0,92,0.00,,,0.00,54,Wunderground v.1.15,2013-03-06 13:44:00,
2013-03-06 08:49:00,33.7,31.6,30.00,East,98,7.0,7.0,92,0.00,,,0.00,74,Wunderground v.1.15,2013-03-06 13:49:00,
2013-03-06 08:59:00,33.8,31.7,30.00,ESE,115,8.0,15.0,92,0.00,,,0.00,70,Wunderground v.1.15,2013-03-06 13:59:00,
2013-03-06 09:04:00,33.9,31.8,30.00,NE,38,8.0,9.0,92,0.00,,,0.00,70,Wunderground v.1.15,2013-03-06 14:04:00,
2013-03-06 09:14:00,34.0,31.9,30.00,SE,139,8.0,8.0,92,0.00,,,0.00,100,Wunderground v.1.15,2013-03-06 14:14:00,
2013-03-06 09:19:00,34.0,32.2,30.00,ENE,64,8.0,8.0,93,0.00,,,0.00,79,Wunderground v.1.15,2013-03-06 14:19:00,
2013-03-06 09:24:00,34.0,32.2,30.00,ESE,105,7.0,10.0,93,0.00,,,0.00,97,Wunderground v.1.15,2013-03-06 14:24:00,
2013-03-06 09:29:00,33.8,32.3,30.00,NE,49,7.0,10.0,94,0.00,,,0.00,76,Wunderground v.1.15,2013-03-06 14:29:00,
2013-03-06 09:39:00,33.5,32.2,30.00,ENE,73,7.0,9.0,95,0.00,,,0.00,104,Wunderground v.1.15,2013-03-06 14:39:00,
2013-03-06 09:44:00,33.4,32.1,30.00,NE,50,7.0,8.0,95,0.00,,,0.00,123,Wunderground v.1.15,2013-03-06 14:44:00,
2013-03-06 09:54:00,33.6,32.6,30.00,NNW,340,6.0,6.0,96,0.00,,,0.01,111,Wunderground v.1.15,2013-03-06 14:54:00,
2013-03-06 10:04:00,33.8,32.8,29.99,SE,142,6.0,6.0,96,0.00,,,0.01,142,Wunderground v.1.15,2013-03-06 15:04:00,
2013-03-06 10:14:00,34.1,33.1,29.99,SE,128,8.0,9.0,96,0.00,,,0.01,153,Wunderground v.1.15,2013-03-06 15:14:00,
2013-03-06 10:19:00,34.2,33.2,29.99,NE,43,8.0,9.0,96,0.00,,,0.01,144,Wunderground v.1.15,2013-03-06 15:19:00,
2013-03-06 10:24:00,34.3,33.0,29.99,North,11,8.0,10.0,95,0.00,,,0.01,90,Wunderground v.1.15,2013-03-06 15:24:00,
2013-03-06 10:29:00,34.3,33.0,29.99,ENE,61,7.0,10.0,95,0.00,,,0.01,113,Wunderground v.1.15,2013-03-06 15:29:00,
2013-03-06 10:34:00,34.2,32.9,29.99,NNE,17,8.0,10.0,95,0.00,,,0.01,134,Wunderground v.1.15,2013-03-06 15:34:00,
2013-03-06 10:39:00,34.1,32.8,29.99,ENE,78,7.0,10.0,95,0.00,,,0.01,179,Wunderground v.1.15,2013-03-06 15:39:00,
2013-03-06 10:49:00,34.2,33.2,29.99,NNE,15,6.0,10.0,96,0.00,,,0.01,162,Wunderground v.1.15,2013-03-06 15:49:00,
2013-03-06 10:54:00,34.3,33.3,29.99,NE,42,7.0,16.0,96,0.00,,,0.01,204,Wunderground v.1.15,2013-03-06 15:54:00,
2013-03-06 10:59:00,34.2,32.9,29.99,SE,138,7.0,16.0,95,0.00,,,0.01,195,Wunderground v.1.15,2013-03-06 15:59:00,
2013-03-06 11:09:00,34.6,33.3,30.00,ENE,75,8.0,19.0,95,0.00,,,0.01,320,Wunderground v.1.15,2013-03-06 16:09:00,
2013-03-06 11:14:00,35.2,33.6,29.99,NE,35,10.0,10.0,94,0.00,,,0.01,264,Wunderground v.1.15,2013-03-06 16:14:00,
2013-03-06 11:19:00,35.1,33.3,29.99,NNE,22,10.0,12.0,93,0.00,,,0.01,107,Wunderground v.1.15,2013-03-06 16:19:00,
2013-03-06 11:24:00,34.7,33.2,30.00,NE,51,9.0,9.0,94,0.00,,,0.01,178,Wunderground v.1.15,2013-03-06 16:24:00,
2013-03-06 11:34:00,34.2,32.9,30.00,ENE,72,7.0,11.0,95,0.00,,,0.01,137,Wunderground v.1.15,2013-03-06 16:34:00,
2013-03-06 11:39:00,34.2,32.9,30.00,North,11,7.0,11.0,95,0.00,,,0.01,178,Wunderground v.1.15,2013-03-06 16:39:00,
2013-03-06 11:44:00,34.2,32.9,30.00,East,90,7.0,7.0,95,0.00,,,0.02,209,Wunderground v.1.15,2013-03-06 16:44:00,
2013-03-06 11:49:00,34.4,33.1,30.00,NE,36,7.0,11.0,95,0.00,,,0.02,141,Wunderground v.1.15,2013-03-06 16:49:00,
2013-03-06 11:59:00,35.4,33.8,30.00,ENE,72,7.0,8.0,94,0.00,,,0.02,406,Wunderground v.1.15,2013-03-06 16:59:00,
2013-03-06 12:09:00,36.0,33.1,29.99,ESE,117,7.0,8.0,89,0.00,,,0.02,113,Wunderground v.1.15,2013-03-06 17:09:00,
2013-03-06 12:14:00,35.5,32.3,30.00,ESE,102,8.0,8.0,88,0.00,,,0.02,165,Wunderground v.1.15,2013-03-06 17:14:00,
2013-03-06 12:24:00,34.7,32.1,29.99,ENE,60,10.0,10.0,90,0.00,,,0.02,322,Wunderground v.1.15,2013-03-06 17:24:00,
2013-03-06 12:29:00,34.9,32.3,29.99,NE,52,11.0,11.0,90,0.00,,,0.02,350,Wunderground v.1.15,2013-03-06 17:29:00,
2013-03-06 12:34:00,35.3,32.1,29.99,East,101,9.0,16.0,88,0.00,,,0.02,176,Wunderground v.1.15,2013-03-06 17:34:00,
2013-03-06 12:39:00,35.3,31.5,29.99,NE,44,9.0,16.0,86,0.00,,,0.02,125,Wunderground v.1.15,2013-03-06 17:39:00,
2013-03-06 12:44:00,35.2,30.9,29.99,NNE,28,10.0,10.0,84,0.00,,,0.02,139,Wunderground v.1.15,2013-03-06 17:44:00,
2013-03-06 12:49:00,35.2,30.6,29.99,East,86,10.0,10.0,83,0.00,,,0.02,141,Wunderground v.1.15,2013-03-06 17:49:00,
2013-03-06 12:59:00,35.1,30.2,29.99,NW,325,9.0,15.0,82,0.00,,,0.02,176,Wunderground v.1.15,2013-03-06 17:59:00,
2013-03-06 13:09:00,35.3,30.4,29.98,North,360,10.0,13.0,82,0.00,,,0.02,162,Wunderground v.1.15,2013-03-06 18:09:00,
2013-03-06 13:14:00,35.2,29.6,29.98,SE,138,10.0,12.0,80,0.00,,,0.02,176,Wunderground v.1.15,2013-03-06 18:14:00,
2013-03-06 13:24:00,35.0,29.8,29.98,SE,129,10.0,16.0,81,0.00,,,0.02,125,Wunderground v.1.15,2013-03-06 18:24:00,
2013-03-06 13:29:00,35.1,29.9,29.98,NE,50,8.0,16.0,81,0.00,,,0.02,137,Wunderground v.1.15,2013-03-06 18:29:00,
2013-03-06 13:34:00,35.2,29.6,29.98,North,360,8.0,9.0,80,0.00,,,0.02,209,Wunderground v.1.15,2013-03-06 18:34:00,
2013-03-06 13:39:00,35.3,29.4,29.98,East,90,9.0,9.0,79,0.00,,,0.02,162,Wunderground v.1.15,2013-03-06 18:39:00,
2013-03-06 13:44:00,35.4,29.5,29.98,SE,146,10.0,10.0,79,0.00,,,0.02,156,Wunderground v.1.15,2013-03-06 18:44:00,
2013-03-06 13:49:00,35.3,29.1,29.98,North,5,9.0,10.0,78,0.00,,,0.02,137,Wunderground v.1.15,2013-03-06 18:49:00,
2013-03-06 13:59:00,35.3,29.4,29.98,North,355,9.0,11.0,79,0.00,,,0.02,88,Wunderground v.1.15,2013-03-06 18:59:00,
2013-03-06 14:04:00,35.3,29.4,29.99,NW,306,6.0,6.0,79,0.00,,,0.02,114,Wunderground v.1.15,2013-03-06 19:04:00,
2013-03-06 14:09:00,35.3,29.4,29.98,ENE,59,7.0,7.0,79,0.00,,,0.02,156,Wunderground v.1.15,2013-03-06 19:09:00,
2013-03-06 14:14:00,35.3,29.4,29.99,SE,126,8.0,10.0,79,0.00,,,0.02,109,Wunderground v.1.15,2013-03-06 19:14:00,
2013-03-06 14:19:00,35.2,29.6,29.98,NNE,21,8.0,10.0,80,0.00,,,0.02,83,Wunderground v.1.15,2013-03-06 19:19:00,
2013-03-06 14:29:00,35.1,29.2,29.99,NNE,18,7.0,8.0,79,0.00,,,0.02,91,Wunderground v.1.15,2013-03-06 19:29:00,
2013-03-06 14:34:00,35.1,29.6,29.99,NE,47,7.0,7.0,80,0.00,,,0.02,109,Wunderground v.1.15,2013-03-06 19:34:00,
2013-03-06 14:39:00,35.2,29.3,29.98,NNE,25,7.0,7.0,79,0.00,,,0.02,135,Wunderground v.1.15,2013-03-06 19:39:00,
2013-03-06 14:44:00,35.3,29.4,29.98,North,5,8.0,8.0,79,0.00,,,0.02,193,Wunderground v.1.15,2013-03-06 19:44:00,
2013-03-06 14:54:00,35.6,29.4,29.98,North,355,9.0,9.0,78,0.00,,,0.02,88,Wunderground v.1.15,2013-03-06 19:54:00,
2013-03-06 14:59:00,35.5,29.3,29.98,North,360,8.0,12.0,78,0.00,,,0.02,178,Wunderground v.1.15,2013-03-06 19:59:00,
2013-03-06 15:04:00,35.6,29.7,29.98,NNW,331,9.0,9.0,79,0.00,,,0.02,202,Wunderground v.1.15,2013-03-06 20:04:00,
2013-03-06 15:09:00,35.8,29.9,29.98,ESE,102,9.0,12.0,79,0.00,,,0.02,232,Wunderground v.1.15,2013-03-06 20:09:00,
2013-03-06 15:19:00,35.6,30.0,29.99,NNE,12,10.0,16.0,80,0.00,,,0.02,46,Wunderground v.1.15,2013-03-06 20:19:00,
2013-03-06 15:29:00,35.0,29.8,29.99,ENE,57,9.0,17.0,81,0.00,,,0.02,67,Wunderground v.1.15,2013-03-06 20:29:00,
2013-03-06 15:34:00,34.9,30.0,29.98,NNE,24,9.0,9.0,82,0.00,,,0.02,81,Wunderground v.1.15,2013-03-06 20:34:00,
2013-03-06 15:39:00,34.8,29.9,29.98,NNW,346,10.0,10.0,82,0.00,,,0.02,79,Wunderground v.1.15,2013-03-06 20:39:00,
2013-03-06 15:44:00,34.8,29.9,29.98,East,80,10.0,10.0,82,0.00,,,0.02,54,Wunderground v.1.15,2013-03-06 20:44:00,
2013-03-06 15:49:00,34.8,29.9,29.99,East,85,9.0,16.0,82,0.00,,,0.02,44,Wunderground v.1.15,2013-03-06 20:49:00,
2013-03-06 15:54:00,34.7,30.1,29.98,NNE,32,9.0,12.0,83,0.00,,,0.02,35,Wunderground v.1.15,2013-03-06 20:54:00,
2013-03-06 15:59:00,34.4,30.4,29.99,NE,39,10.0,13.0,85,0.00,,,0.02,37,Wunderground v.1.15,2013-03-06 20:59:00,
2013-03-06 16:09:00,33.6,30.7,29.98,NE,41,8.0,10.0,89,0.00,,,0.02,49,Wunderground v.1.15,2013-03-06 21:09:00,
2013-03-06 16:14:00,33.5,30.9,29.98,ENE,71,7.0,8.0,90,0.00,,,0.02,62,Wunderground v.1.15,2013-03-06 21:14:00,
2013-03-06 16:24:00,33.7,30.2,29.99,North,355,8.0,8.0,87,0.00,,,0.02,39,Wunderground v.1.15,2013-03-06 21:24:00,
2013-03-06 16:29:00,33.7,30.2,29.99,NW,315,8.0,8.0,87,0.00,,,0.02,25,Wunderground v.1.15,2013-03-06 21:29:00,
2013-03-06 16:34:00,33.7,30.2,29.99,North,355,7.0,7.0,87,0.00,,,0.02,28,Wunderground v.1.15,2013-03-06 21:34:00,
2013-03-06 16:39:00,33.6,30.1,29.99,NNE,19,7.0,13.0,87,0.00,,,0.02,19,Wunderground v.1.15,2013-03-06 21:39:00,
2013-03-06 16:49:00,33.1,30.5,30.00,ENE,59,10.0,10.0,90,0.00,,,0.02,26,Wunderground v.1.15,2013-03-06 21:49:00,
2013-03-06 16:54:00,33.0,30.4,30.00,NE,49,9.0,9.0,90,0.00,,,0.02,23,Wunderground v.1.15,2013-03-06 21:54:00,
2013-03-06 16:59:00,33.0,30.1,30.00,NE,36,7.0,9.0,89,0.00,,,0.02,18,Wunderground v.1.15,2013-03-06 21:59:00,
2013-03-06 17:04:00,33.0,30.1,30.00,NE,41,8.0,8.0,89,0.00,,,0.02,16,Wunderground v.1.15,2013-03-06 22:04:00,
2013-03-06 17:09:00,33.0,30.1,30.01,NNW,346,10.0,10.0,89,0.00,,,0.02,12,Wunderground v.1.15,2013-03-06 22:09:00,
2013-03-06 17:19:00,33.1,29.9,30.01,NE,37,9.0,13.0,88,0.00,,,0.02,7,Wunderground v.1.15,2013-03-06 22:19:00,
2013-03-06 17:29:00,33.0,29.8,30.01,NE,34,10.0,11.0,88,0.00,,,0.02,7,Wunderground v.1.15,2013-03-06 22:29:00,
2013-03-06 17:34:00,32.9,29.7,30.01,NNE,15,10.0,14.0,88,0.00,,,0.02,5,Wunderground v.1.15,2013-03-06 22:34:00,
2013-03-06 17:39:00,32.8,29.9,30.02,NNE,13,11.0,14.0,89,0.00,,,0.02,0,Wunderground v.1.15,2013-03-06 22:39:00,
2013-03-06 17:44:00,32.4,30.1,30.02,North,355,11.0,12.0,91,0.00,,,0.02,0,Wunderground v.1.15,2013-03-06 22:44:00,
2013-03-06 17:49:00,32.1,29.8,30.01,NNE,28,11.0,12.0,91,0.00,,,0.02,0,Wunderground v.1.15,2013-03-06 22:49:00,
2013-03-06 17:59:00,32.1,29.8,30.01,NE,34,8.0,10.0,91,0.00,,,0.02,0,Wunderground v.1.15,2013-03-06 22:59:00,
2013-03-06 18:04:00,32.1,29.8,30.02,NNE,24,7.0,15.0,91,0.00,,,0.02,0,Wunderground v.1.15,2013-03-06 23:04:00,
2013-03-06 18:09:00,32.0,29.9,30.02,ENE,69,8.0,15.0,92,0.00,,,0.02,0,Wunderground v.1.15,2013-03-06 23:09:00,
2013-03-06 18:14:00,31.9,29.8,30.03,ENE,66,8.0,8.0,92,0.00,,,0.02,0,Wunderground v.1.15,2013-03-06 23:14:00,
2013-03-06 18:19:00,31.7,29.6,30.03,NNE,19,8.0,10.0,92,0.00,,,0.02,0,Wunderground v.1.15,2013-03-06 23:19:00,
2013-03-06 18:24:00,31.7,29.6,30.04,North,11,8.0,8.0,92,0.00,,,0.02,0,Wunderground v.1.15,2013-03-06 23:24:00,
2013-03-06 18:29:00,31.7,29.4,30.03,ENE,78,10.0,10.0,91,0.00,,,0.02,0,Wunderground v.1.15,2013-03-06 23:29:00,
2013-03-06 18:34:00,31.7,29.1,30.03,ENE,61,10.0,10.0,90,0.00,,,0.02,0,Wunderground v.1.15,2013-03-06 23:34:00,
2013-03-06 18:39:00,31.8,29.2,30.04,NE,51,9.0,10.0,90,0.00,,,0.02,0,Wunderground v.1.15,2013-03-06 23:39:00,
2013-03-06 18:49:00,31.7,28.8,30.03,NE,51,10.0,18.0,89,0.00,,,0.02,0,Wunderground v.1.15,2013-03-06 23:49:00,
2013-03-06 18:54:00,31.7,29.1,30.04,NNE,26,10.0,10.0,90,0.00,,,0.02,0,Wunderground v.1.15,2013-03-06 23:54:00,
2013-03-06 18:59:00,31.6,29.0,30.04,ESE,109,9.0,10.0,90,0.00,,,0.02,0,Wunderground v.1.15,2013-03-06 23:59:00,
2013-03-06 19:04:00,31.6,28.7,30.04,NE,40,10.0,10.0,89,0.00,,,0.02,0,Wunderground v.1.15,2013-03-07 00:04:00,
2013-03-06 19:09:00,31.6,28.7,30.03,East,93,12.0,14.0,89,0.00,,,0.02,0,Wunderground v.1.15,2013-03-07 00:09:00,
2013-03-06 19:14:00,31.6,28.5,30.04,NNW,344,11.0,19.0,88,0.00,,,0.02,0,Wunderground v.1.15,2013-03-07 00:14:00,
2013-03-06 19:24:00,31.7,28.3,30.04,NNE,14,9.0,14.0,87,0.00,,,0.02,0,Wunderground v.1.15,2013-03-07 00:24:00,
2013-03-06 19:29:00,31.8,28.1,30.04,NE,36,8.0,14.0,86,0.00,,,0.02,0,Wunderground v.1.15,2013-03-07 00:29:00,
2013-03-06 19:34:00,31.8,28.4,30.03,SSE,157,9.0,9.0,87,0.00,,,0.02,0,Wunderground v.1.15,2013-03-07 00:34:00,
2013-03-06 19:39:00,31.8,28.4,30.04,NE,45,10.0,10.0,87,0.00,,,0.02,0,Wunderground v.1.15,2013-03-07 00:39:00,
2013-03-06 19:49:00,31.7,28.3,30.03,NNE,17,12.0,12.0,87,0.00,,,0.02,0,Wunderground v.1.15,2013-03-07 00:49:00,
2013-03-06 19:54:00,31.6,28.2,30.03,NE,41,11.0,16.0,87,0.00,,,0.02,0,Wunderground v.1.15,2013-03-07 00:54:00,
2013-03-06 19:59:00,31.6,28.2,30.03,ENE,58,10.0,16.0,87,0.00,,,0.02,0,Wunderground v.1.15,2013-03-07 00:59:00,
2013-03-06 20:09:00,31.6,28.2,30.04,NNE,31,9.0,14.0,87,0.00,,,0.02,0,Wunderground v.1.15,2013-03-07 01:09:00,
2013-03-06 20:19:00,31.5,28.1,30.04,NE,46,10.0,11.0,87,0.00,,,0.02,0,Wunderground v.1.15,2013-03-07 01:19:00,
2013-03-06 20:24:00,31.5,28.1,30.03,NE,34,10.0,11.0,87,0.00,,,0.02,0,Wunderground v.1.15,2013-03-07 01:24:00,
2013-03-06 20:34:00,31.4,28.0,30.03,North,360,9.0,10.0,87,0.00,,,0.02,0,Wunderground v.1.15,2013-03-07 01:34:00,
2013-03-06 20:44:00,31.4,28.0,30.03,ENE,65,8.0,12.0,87,0.00,,,0.02,0,Wunderground v.1.15,2013-03-07 01:44:00,
2013-03-06 20:49:00,31.5,27.8,30.03,WNW,302,8.0,12.0,86,0.00,,,0.02,0,Wunderground v.1.15,2013-03-07 01:49:00,
2013-03-06 20:54:00,31.5,27.8,30.03,NE,39,9.0,10.0,86,0.00,,,0.02,0,Wunderground v.1.15,2013-03-07 01:54:00,
2013-03-06 20:59:00,31.5,27.8,30.03,NNE,32,9.0,10.0,86,0.00,,,0.02,0,Wunderground v.1.15,2013-03-07 01:59:00,
2013-03-06 21:04:00,31.5,27.8,30.03,NNE,29,9.0,15.0,86,0.00,,,0.02,0,Wunderground v.1.15,2013-03-07 02:04:00,
2013-03-06 21:09:00,31.5,27.8,30.03,NNE,19,11.0,15.0,86,0.00,,,0.02,0,Wunderground v.1.15,2013-03-07 02:09:00,
2013-03-06 21:14:00,31.5,27.8,30.03,East,80,13.0,13.0,86,0.00,,,0.02,0,Wunderground v.1.15,2013-03-07 02:14:00,
2013-03-06 21:19:00,31.5,27.8,30.03,NNE,31,11.0,13.0,86,0.00,,,0.02,0,Wunderground v.1.15,2013-03-07 02:19:00,
2013-03-06 21:29:00,31.4,27.7,30.03,NE,42,9.0,13.0,86,0.00,,,0.02,0,Wunderground v.1.15,2013-03-07 02:29:00,
2013-03-06 21:34:00,31.4,27.7,30.03,North,11,10.0,10.0,86,0.00,,,0.02,0,Wunderground v.1.15,2013-03-07 02:34:00,
2013-03-06 21:39:00,31.5,27.8,30.03,NNE,26,10.0,15.0,86,0.00,,,0.02,0,Wunderground v.1.15,2013-03-07 02:39:00,
2013-03-06 21:44:00,31.5,27.8,30.03,NE,50,10.0,10.0,86,0.00,,,0.02,0,Wunderground v.1.15,2013-03-07 02:44:00,
2013-03-06 21:54:00,31.4,27.7,30.03,NE,44,9.0,9.0,86,0.00,,,0.02,0,Wunderground v.1.15,2013-03-07 02:54:00,
2013-03-06 22:04:00,31.3,27.6,30.03,NE,37,6.0,6.0,86,0.00,,,0.02,0,Wunderground v.1.15,2013-03-07 03:04:00,
2013-03-06 22:09:00,31.3,27.6,30.03,NE,34,9.0,15.0,86,0.00,,,0.02,0,Wunderground v.1.15,2013-03-07 03:09:00,
2013-03-06 22:14:00,31.2,27.8,30.03,ENE,78,8.0,11.0,87,0.00,,,0.02,0,Wunderground v.1.15,2013-03-07 03:14:00,
2013-03-06 22:19:00,31.2,27.5,30.03,NE,44,8.0,16.0,86,0.00,,,0.02,0,Wunderground v.1.15,2013-03-07 03:19:00,
2013-03-06 22:29:00,31.1,27.4,30.03,NNE,23,8.0,9.0,86,0.00,,,0.02,0,Wunderground v.1.15,2013-03-07 03:29:00,
2013-03-06 22:39:00,31.1,27.4,30.02,NNE,15,7.0,12.0,86,0.00,,,0.02,0,Wunderground v.1.15,2013-03-07 03:39:00,
2013-03-06 22:49:00,31.1,27.4,30.02,NNW,348,6.0,7.0,86,0.00,,,0.02,0,Wunderground v.1.15,2013-03-07 03:49:00,
2013-03-06 22:59:00,31.1,27.4,30.02,North,349,8.0,15.0,86,0.00,,,0.02,0,Wunderground v.1.15,2013-03-07 03:59:00,
2013-03-06 23:04:00,31.1,27.4,30.02,North,360,10.0,11.0,86,0.00,,,0.02,0,Wunderground v.1.15,2013-03-07 04:04:00,
2013-03-06 23:09:00,31.1,27.4,30.02,NNW,343,9.0,16.0,86,0.00,,,0.02,0,Wunderground v.1.15,2013-03-07 04:09:00,
2013-03-06 23:19:00,31.1,27.1,30.02,ENE,58,10.0,10.0,85,0.00,,,0.02,0,Wunderground v.1.15,2013-03-07 04:19:00,
2013-03-06 23:24:00,31.2,27.2,30.02,NE,55,9.0,10.0,85,0.00,,,0.02,0,Wunderground v.1.15,2013-03-07 04:24:00,
2013-03-06 23:34:00,31.2,27.2,30.02,North,5,9.0,9.0,85,0.00,,,0.02,0,Wunderground v.1.15,2013-03-07 04:34:00,
2013-03-06 23:39:00,31.1,27.1,30.02,NE,55,8.0,9.0,85,0.00,,,0.02,0,Wunderground v.1.15,2013-03-07 04:39:00,
2013-03-06 23:44:00,31.1,27.1,30.02,NNE,30,9.0,9.0,85,0.00,,,0.02,0,Wunderground v.1.15,2013-03-07 04:44:00,
2013-03-06 23:49:00,31.1,27.1,30.02,NNE,27,8.0,9.0,85,0.00,,,0.02,0,Wunderground v.1.15,2013-03-07 04:49:00,
2013-03-06 23:54:00,31.1,27.1,30.02,NE,51,8.0,8.0,85,0.00,,,0.02,0,Wunderground v.1.15,2013-03-07 04:54:00,
2013-03-06 23:59:00,31.1,27.1,30.02,East,90,8.0,9.0,85,0.00,,,0.02,0,Wunderground v.1.15,2013-03-07 04:59:00,